Regional Weather Roundup
Issued by NWS

Home | Current Version | Previous Version | Graphics & Text | Print | Product List | Glossary On
Versions: 1 2 3 4 5 6 7 8 9 10 11 12 13 14 15 16 17 18 19 20 21 22 23 24 25 26 27 28 29 30 31 32 33 34 35 36 37 38 39 40 41 42 43 44 45 46 47 48 49 50
000
ASUS43 KDTX 302310
RWRMI
MICHIGAN HOURLY REGIONAL WEATHER ROUNDUP
NATIONAL WEATHER SERVICE DETROIT/PONTIAC MI
700 PM EDT SAT APR 30 2016

NOTE: "FAIR" INDICATES FEW OR NO CLOUDS BELOW 12,000 FEET WITH NO
SIGNIFICANT WEATHER AND/OR OBSTRUCTION TO VISIBILITY.

MIZ047>049-052>055-059>063-066>070-074>076-081>083-010000-
SOUTHEAST LOWER MICHIGAN

CITY           SKY/WX    TMP DP  RH WIND       PRES   REMARKS
ADRIAN         LGT RAIN  47  45  93 E13       30.01F FOG
ALMA           LGT RAIN  49  39  67 NE8       30.05S
ANN ARBOR      LGT RAIN  47  44  90 SE12      30.04R
BAD AXE        CLOUDY    49  28  43 NE13      30.10F
CARO           CLOUDY    55  40  57 E7        30.05F
DETROIT CITY   LGT RAIN  49  45  86 E9        30.06S FOG
DETROIT        LGT RAIN  48  45  89 E8        30.07R FOG
FLINT          LGT RAIN  54  46  74 SE8       30.04S
GROSSE ILE     LGT RAIN  48  45  87 E3        30.05R
HILLSDALE      LGT RAIN  47  46  98 E14       29.98F
HOWELL         LGT RAIN  49  47  91 E7        30.03S

CITY           SKY/WX    TMP DP  RH WIND       PRES   REMARKS
JACKSON        LGT RAIN  49  46  90 E10       30.00S FOG
LAMBERTVILLE   RAIN      48  46  92 E7        30.02F
LANSING        LGT RAIN  49  44  83 E8        30.03F
LAPEER         LGT RAIN  51  46  82 E3        30.05F
MASON          LGT RAIN  48  45  87 E8        30.01F
MONROE         LGT RAIN  47  46  97 E10G17    30.04S
MT. CLEMENS    LGT RAIN  50  50 100 SE5       30.05F FOG
PONTIAC        LGT RAIN  48  46  93 E7        30.04S
PORT HOPE        N/A     43  36  76 NE8       30.09F
PORT HURON     LGT RAIN  46  36  66 N6        30.07F
TRI CITIES     LGT RAIN  52  37  56 NE15      30.06F
MIDLAND        CLOUDY    52  31  46 NE12G18   30.06F
TROY           LGT RAIN  50  47  91 E9        30.07S
SAGINAW HB     LGT RAIN  55  41  58 E8        30.04F
$$
MIZ043>046-050>051-056>058-064>065-071>073-077>080-010000-
SOUTHWEST LOWER MICHIGAN

CITY           SKY/WX    TMP DP  RH WIND       PRES   REMARKS
BATTLE CREEK   LGT RAIN  48  45  89 E13       29.99F FOG
BENTON HARBOR  LGT RAIN  48  45  89 NE12      29.94F FOG
BIG RAPIDS     LGT RAIN  53  32  44 E12       30.03F
COLDWATER      LGT RAIN  48  46  93 E13       29.98S
FREMONT        LGT RAIN  49  42  76 E6        30.01S
HOLLAND        LGT RAIN  49  44  83 E8        30.00S
GRAND RAPIDS   LGT RAIN  50  44  80 E9        30.02S
IONIA          LGT RAIN  49  43  81 E6        30.02S
KALAMAZOO      RAIN      49  45  86 E8        29.98F FOG
LUDINGTON      CLOUDY    56  35  45 E8        30.02S
MARSHALL       LGT RAIN  48  46  93 E6        29.99S
MOUNT PLEASANT CLOUDY    53  32  43 NE12G18   30.04F
MUSKEGON       LGT RAIN  50  43  77 NE9       30.01S
SOUTH HAVEN    LGT RAIN  47  45  94 E7        29.97F
$$
MIZ016>042-010000-
NORTHERN LOWER MICHIGAN

CITY           SKY/WX    TMP DP  RH WIND       PRES   REMARKS
ALPENA         PTSUNNY   51  28  41 E6        30.13S
BEAVER ISLAND  PTSUNNY   52  27  38 E10       30.11F
BELLAIRE       CLOUDY    60  28  29 NE9G16    30.05S
CADILLAC       CLOUDY    54  32  43 E9        30.03F
CHARLEVOIX     CLOUDY    55  25  31 E17       30.11S
FRANKFORT      CLOUDY    53  32  45 N5        30.04F
GAYLORD        CLOUDY    55  27  34 E8        30.08S
GRAYLING       CLOUDY    55  30  38 E15       30.08S
HARBOR SPRINGS CLOUDY    54  23  30 E15       30.11S
HOUGHTON LAKE  CLOUDY    53  28  38 E12G22    30.07F
MANISTEE       CLOUDY    57  32  38 E6        30.03S
OSCODA         CLOUDY    47  29  48 NE10      30.12S
PELLSTON       CLOUDY    54  23  30 E10       30.12S
ROGERS CITY    CLOUDY    42  34  72 CALM      30.15S
TRAVERSE CITY  CLOUDY    52  33  48 W5        30.04F
$$
MIZ007>008-015-010000-
EASTERN UPPER MICHIGAN

CITY           SKY/WX    TMP DP  RH WIND       PRES   REMARKS
KINROSS          N/A     50  34  53 N10       30.14S
MACKINAC ISLAN CLOUDY    50  21  31 E7        30.13S
NEWBERRY       CLOUDY    49  33  54 N6        30.15R
S. S. MARIE    MOSUNNY   55  32  41 NW7       30.14S
MUNISING         N/A     42  36  79 NE14      30.18S
$$
MIZ004>006-011>014-085-010000-
CENTRAL UPPER MICHIGAN

CITY           SKY/WX    TMP DP  RH WIND       PRES   REMARKS
MANISTIQUE     PTSUNNY   53  31  42 N10G18    30.12F
ESCANABA       PTSUNNY   52  30  43 NE14G20   30.11F
MENOMINEE      CLOUDY    52  27  37 NE14G23   30.08S
SAWYER-GWINN   SUNNY     43  32  65 NE16      30.16F
$$
MIZ001>003-009>011-084-010000-
WESTERN UPPER MICHIGAN

CITY           SKY/WX    TMP DP  RH WIND       PRES   REMARKS
IRON MOUNTAIN  CLOUDY    53  30  41 E12G20    30.10F
HOUGHTON       SUNNY     48  34  58 E7        30.21F
COPPER HARBOR    N/A     44  36  73 N6        30.23F
IRONWOOD         N/A     46  32  57 NE15      30.15S
$$

ABBREVIATIONS USED IN REMARKS
   TC - TEMPERATURE IN CELSIUS
  WCI - WIND CHILL INDEX
   HX - HEAT INDEX
  VSB - VISIBILITY





USA.gov is the U.S. government's official web portal to all federal, state and local government web resources and services.